Tracking 32577 objects as of 14-Dec-2025
HD Live streaming from Space Station
objects crossing your sky now

STARLINK-30990

Track STARLINK-30990 now!
10-day predictions
STARLINK-30990 is classified as:


NORAD ID: 58478
Int'l Code: 2023-186F
Perigee: 565.4 km
Apogee: 567.0 km
Inclination: 43.0 °
Period: 95.8 minutes
Semi major axis: 6937 km
RCS: Unknown
Launch date: December 3, 2023
Source: United States (US)
Launch site: AIR FORCE EASTERN TEST RANGE (AFETR)
Your satellite tracking list
Your tracking list is empty




NASA's NSSDC Master Catalog

Two Line Element Set (TLE):
1 58478U 23186F   25347.89214347  .00001049  00000-0  92692-4 0  9997
2 58478  43.0022 173.7935 0001149 274.3161  85.7550 15.02533151112986
Source of the keplerian elements: AFSPC